Flag for U.S.A. Weather past 2 weeks in Pomona, California, U.S.A.

Now
78 °F

Broken clouds.


Feels Like: 79 °F
Forecast: 67 / 88 °F
Wind: 14 mph from Northwest

Location: Chino Airport

Current Time: Jul 1, 2015 at 9:31:51 PM

Latest Report: Jul 1, 2015 at 7:53 PM


Visibility: 10 mi

Pressure: 29.91 "Hg

Humidity: 52%

Dew point: 59 °F

Location of PomonaLocation

Historic Weather in Pomona — Graph

°F

Pomona temperature yesterday

Maximum temperature yesterday: 100 °F (at 12:53 PM)
Minimum temperature yesterday: 68 °F (at 4:53 AM)
Average temperature yesterday: 82 °F

Past Weeks' High & Low Weather Summary

 TemperatureHumidityPressure
High103 °F (Jun 28, 3:53 PM)93% (Jun 17, 4:53 AM)30.00 "Hg (Jun 17, 4:53 AM)
Low58 °F (Jun 18, 5:56 AM)13% (Jun 19, 4:53 PM)29.78 "Hg (Jun 19, 5:53 PM)
Average78 °F52%29.89 "Hg
* Reported Jun 16 7:53 PM — Jul 1 7:53 PM, Pomona, Weather by CustomWeather, © 2015

Note: Actual official high and low records may vary slightly from our data, if they occured in-between our weather recording intervals... More about our weather records

Advertising

Pomona weather history for previous 24 hours

 ConditionsComfort  
Time TempWeatherWind HumidityBarometerVisibility
7:53 PM
Wed, Jul 1
78 °FBroken clouds.14 mph52%29.91 "Hg10 mi
6:53 PM82 °FPartly sunny.10 mph44%29.88 "Hg10 mi
5:53 PM85 °FPartly sunny.13 mph42%29.85 "Hg10 mi
4:53 PM87 °FPartly sunny.13 mph36%29.87 "Hg10 mi
3:53 PM90 °FPartly sunny.15 mph34%29.86 "Hg10 mi
2:53 PM93 °FPartly sunny.9 mph34%29.87 "Hg10 mi
1:53 PM92 °FPartly sunny.14 mph32%29.88 "Hg10 mi
12:53 PM92 °FMostly cloudy.5 mph27%29.87 "Hg10 mi
11:53 AM89 °FMostly cloudy.5 mph31%29.90 "Hg10 mi
10:53 AM87 °FBroken clouds.No wind33%29.92 "Hg10 mi
9:53 AM84 °FBroken clouds.No wind40%29.93 "Hg10 mi
8:53 AM79 °FBroken clouds.No wind52%29.93 "Hg10 mi
7:53 AM77 °FPartly sunny.7 mph56%29.90 "Hg10 mi
6:53 AM76 °FPartly sunny.3 mph60%29.88 "Hg10 mi
5:53 AM70 °FClear.9 mph76%29.89 "Hg7 mi
4:53 AM72 °FPassing clouds.6 mph68%29.88 "Hg7 mi
3:53 AM73 °FThunderstorms. Passing clouds.5 mph64%29.90 "Hg8 mi
2:53 AM72 °FClear.3 mph61%29.89 "Hg8 mi
1:53 AM72 °FClear.No wind57%29.85 "Hg9 mi
12:53 AM74 °FClear.5 mph53%29.84 "Hg10 mi
11:53 PM
Tue, Jun 30
78 °FClear.8 mph46%29.84 "Hg10 mi
10:53 PM77 °FClear.7 mph48%29.85 "Hg8 mi
Weather by CustomWeather, © 2015

See weather overviewHow to use our weather pages